West Memphis, AR

1:01 PM CDT on June 26, 2017 (GMT -0500)
West Memphis Municipal

Weather History for KAWM - March, 2014

Change the Weather History Date:

Saturday, March 1, 2014

  Actual Average Record
Temperature  
Mean Temperature 55 °F -  
Max Temperature 66 °F 59 °F 74 °F (1976)
Min Temperature 44 °F 38 °F 11 °F (1980)
Degree Days  
Heating Degree Days 10    
Growing Degree Days 5 (Base 50)    
Moisture  
Dew Point 44 °F    
Average Humidity 67    
Maximum Humidity 82    
Minimum Humidity 54    
Precipitation  
Precipitation 0.00 in - - ()
Sea Level Pressure  
Sea Level Pressure 30.07 in    
Wind  
Wind Speed 3 mph (East)    
Max Wind Speed 8 mph    
Max Gust Speed -    
Visibility 10 miles    
Events      
Averages and records for this station are not official NWS values.
T = Trace of Precipitation, MM = Missing Value Source: NWS Daily Summary

Daily Weather History Graph

Daily Weather History Graph

Search for Another Location

Airport or City:

Trip Planner

Search our weather history database for the weather conditions in past years. The results will help you decide how hot, cold, wet, or windy it might be!

Date:

Astronomy

Mar. 01, 2014 Rise Set
Actual Time 6:30 AM CST 5:56 PM CST
Civil Twilight 6:04 AM CST 6:22 PM CST
Nautical Twilight 5:35 AM CST 6:51 PM CST
Astronomical Twilight 5:06 AM CST 7:20 PM CST
Moon 6:26 AM CST (3/1) 6:40 PM CST (3/1)
Length of Visible Light 12h 17m
Length of Day
11h 26m
New Moon, 0% of the Moon is Illuminated
Mar 1
New Moon
Mar 8
First Quarter
Mar 16
Full
Mar 23
Last Quarter
Mar 30
New

Hourly Weather History & Observations

Time (CST) Temp. Windchill Dew Point Humidity Pressure Visibility Wind Dir Wind Speed Gust Speed Precip Events Conditions
12:53 AM 46.0 °F 41.9 °F 37.0 °F 71% 30.03 in 10.0 mi SE 8.1 mph - N/A   Overcast
1:53 AM 46.0 °F 44.8 °F 37.9 °F 73% 30.04 in 10.0 mi SE 3.5 mph - N/A   Overcast
2:53 AM 45.0 °F - 39.0 °F 80% 30.04 in 10.0 mi Calm Calm - N/A   Overcast
3:53 AM 44.1 °F 42.5 °F 39.0 °F 82% 30.04 in 10.0 mi SSE 3.5 mph - N/A   Overcast
4:53 AM 45.0 °F 43.5 °F 39.0 °F 80% 30.06 in 10.0 mi SSE 3.5 mph - N/A   Overcast
5:41 AM 46.4 °F - 39.2 °F 76% 30.08 in 10.0 mi Calm Calm - N/A   Overcast
5:53 AM 46.0 °F - 39.9 °F 79% 30.09 in 10.0 mi Calm Calm - N/A   Overcast
6:53 AM 46.0 °F - 39.9 °F 79% 30.09 in 10.0 mi Calm Calm - N/A   Overcast
7:53 AM 48.0 °F - 39.9 °F 74% 30.11 in 10.0 mi Calm Calm - N/A   Overcast
8:53 AM 50.0 °F - 39.9 °F 68% 30.13 in 10.0 mi Calm Calm - N/A   Overcast
9:53 AM 54.0 °F - 42.1 °F 64% 30.13 in 10.0 mi SE 3.5 mph - N/A   Overcast
10:35 AM 57.2 °F - 44.6 °F 63% 30.12 in 10.0 mi Variable 4.6 mph - N/A   Overcast
10:53 AM 57.9 °F - 45.0 °F 62% 30.12 in 10.0 mi SSW 4.6 mph - N/A   Overcast
11:44 AM 60.8 °F - 46.4 °F 59% 30.10 in 10.0 mi Variable 3.5 mph - N/A   Mostly Cloudy
11:53 AM 62.1 °F - 46.9 °F 58% 30.10 in 10.0 mi NE 3.5 mph - N/A   Mostly Cloudy
12:53 PM 63.0 °F - 48.0 °F 58% 30.08 in 10.0 mi NNE 3.5 mph - N/A   Overcast
1:53 PM 66.0 °F - 48.9 °F 54% 30.06 in 10.0 mi NE 4.6 mph - N/A   Mostly Cloudy
2:53 PM 66.9 °F - 50.0 °F 54% 30.05 in 10.0 mi East 3.5 mph - N/A   Mostly Cloudy
3:53 PM 66.9 °F - 50.0 °F 54% 30.03 in 10.0 mi Calm Calm - N/A   Clear
4:53 PM 66.9 °F - 53.1 °F 61% 30.02 in 10.0 mi SSW 5.8 mph - N/A   Partly Cloudy
5:53 PM 66.0 °F - 54.0 °F 65% 30.04 in 9.0 mi Calm Calm - N/A   Mostly Cloudy
6:53 PM 59.0 °F - 46.9 °F 64% 30.05 in 10.0 mi North 5.8 mph - N/A   Overcast
7:53 PM 57.9 °F - 44.1 °F 60% 30.04 in 10.0 mi NE 6.9 mph - N/A   Overcast
8:53 PM 57.0 °F - 45.0 °F 64% 30.04 in 10.0 mi NNE 3.5 mph - N/A   Overcast
9:53 PM 57.0 °F - 45.0 °F 64% 30.03 in 10.0 mi Calm Calm - N/A   Overcast
10:53 PM 57.0 °F - 46.0 °F 67% 30.03 in 10.0 mi Calm Calm - N/A   Overcast
11:53 PM 55.0 °F - 46.9 °F 74% 30.01 in 10.0 mi Calm Calm - N/A   Overcast